CW8593 Weather Reports


Display with metric or nautical units.
time (UTC)temp
F
wind
direction
speed
MPH
gust
MPH
rain 1hr
in
rain 24hr
in
rain mn
in
humidity
%
barometer
mb
20150530182234 67 137 1.0 5.0 0.00 0.00 0.00 75 1017.1
20150530180236 68 148 4.0 7.0 0.00 0.00 0.00 75 1017.0
20150530175235 67 147 3.0 9.0 0.00 0.00 0.00 75 1017.0
20150530173234 68 176 5.0 9.0 0.00 0.00 0.00 72 1017.0
20150530171236 69 158 3.0 10.0 0.00 0.00 0.00 68 1016.7
20150530170236 69 163 5.0 12.0 0.00 0.00 0.00 68 1016.7
20150530164234 69 154 6.0 10.0 0.00 0.00 0.00 68 1016.7
20150530162235 70 123 3.0 9.0 0.00 0.00 0.00 66 1016.8
20150530161237 70 159 6.0 10.0 0.00 0.00 0.00 65 1016.8
20150530160234 70 151 6.0 9.0 0.00 0.00 0.00 65 1016.8
20150530153234 70 153 6.0 10.0 0.00 0.00 0.00 66 1017.0
20150530152235 70 119 6.0 12.0 0.00 0.00 0.00 67 1016.9
20150530151234 70 146 6.0 12.0 0.00 0.00 0.00 67 1017.0
20150530145235 71 139 5.0 12.0 0.00 0.00 0.00 64 1017.2
20150530144235 70 169 5.0 12.0 0.00 0.00 0.00 64 1017.3
20150530141234 71 159 5.0 10.0 0.00 0.00 0.00 65 1017.5
20150530140234 71 128 5.0 10.0 0.00 0.00 0.00 66 1017.5
20150530135235 71 165 4.0 13.0 0.00 0.00 0.00 65 1017.5
20150530134237 71 128 4.0 10.0 0.00 0.00 0.00 65 1017.5
20150530133234 70 133 5.0 13.0 0.00 0.00 0.00 65 1017.6
20150530132235 70 80 6.0 12.0 0.00 0.00 0.00 65 1017.6
20150530125234 70 103 6.0 12.0 0.00 0.00 0.00 65 1017.7
20150530124235 70 175 5.0 14.0 0.00 0.00 0.00 67 1017.7
20150530123234 71 155 3.0 13.0 0.00 0.00 0.00 68 1017.9
20150530122235 70 142 7.0 12.0 0.00 0.00 0.00 69 1017.9
20150530121234 70 157 5.0 13.0 0.00 0.00 0.00 68 1017.9
20150530120235 71 151 7.0 12.0 0.00 0.00 0.00 67 1017.9
20150530115235 70 136 6.0 13.0 0.00 0.00 0.00 66 1017.9
20150530113234 71 159 7.0 14.0 0.00 0.00 0.00 63 1017.8
20150530111233 71 186 4.0 12.0 0.00 0.00 0.00 61 1017.9
20150530105234 71 136 4.0 12.0 0.00 0.00 0.00 57 1017.9
20150530102233 70 132 7.0 13.0 0.00 0.00 0.00 58 1017.9
20150530094235 70 142 4.0 9.0 0.00 0.00 0.00 66 1017.7
20150530093234 69 48 4.0 13.0 0.00 0.00 0.00 67 1017.7
20150530092234 69 113 5.0 12.0 0.00 0.00 0.00 69 1017.7
20150530091235 70 33 2.0 8.0 0.00 0.00 0.00 71 1017.7
20150530090236 69 106 4.0 12.0 0.00 0.00 0.00 71 1017.5
20150530085234 69 111 6.0 10.0 0.00 0.00 0.00 73 1017.3
20150530081235 69 160 3.0 14.0 0.00 0.00 0.00 69 1017.0
20150530080235 69 55 4.0 12.0 0.00 0.00 0.00 65 1017.0
20150530075234 69 86 3.0 10.0 0.00 0.00 0.00 62 1016.7
20150530074234 69 24 5.0 8.0 0.00 0.00 0.00 63 1016.8
20150530073235 68 84 3.0 9.0 0.00 0.00 0.00 64 1016.7
20150530072234 69 46 4.0 9.0 0.00 0.00 0.00 64 1016.7
20150530070234 68 294 3.0 8.0 0.00 0.00 0.00 65 1016.3
20150530065235 67 71 4.0 8.0 0.00 0.00 0.00 65 1016.3
20150530064235 67 13 2.0 6.0 0.00 0.00 0.00 64 1016.2
20150530063235 66 346 4.0 7.0 0.00 0.00 0.00 64 1016.2
20150530061235 67 22 1.0 5.0 0.00 0.00 0.00 61 1015.9
20150530060233 66 33 2.0 9.0 0.00 0.00 0.00 58 1015.8
20150530055233 65 45 1.0 10.0 0.00 0.00 0.00 59 1015.4
20150530054234 64 43 6.0 12.0 0.00 0.00 0.00 62 1015.4
20150530053234 64 82 3.0 7.0 0.00 0.00 0.00 63 1015.1
20150530052234 64 312 0.0 1.0 0.00 0.00 0.00 62 1015.1
20150530050234 64 312 0.0 1.0 0.00 0.00 0.00 61 1015.1
20150530045234 64 311 0.0 5.0 0.00 0.00 0.00 60 1015.1
20150530044234 64 312 2.0 5.0 0.00 0.00 0.00 61 1015.1
20150530042235 62 312 2.0 6.0 0.00 0.00 0.00 66 1015.0
20150530041234 62 294 0.0 5.0 0.00 0.00 0.00 68 1014.9
20150530040234 62 294 0.0 1.0 0.00 0.00 0.00 69 1014.8
20150530035234 62 294 0.0 1.0 0.00 0.00 0.00 69 1014.7
20150530034233 62 294 0.0 0.0 0.00 0.00 0.00 68 1014.5
20150530031233 64 294 0.0 1.0 0.00 0.00 0.00 65 1014.4
20150530025234 64 290 5.0 9.0 0.00 0.00 0.00 65 1014.4
20150530023233 64 302 1.0 5.0 0.00 0.00 0.00 62 1014.4
20150530022234 64 307 0.0 1.0 0.00 0.00 0.00 62 1014.4
20150530021234 64 308 0.0 2.0 0.00 0.00 0.00 61 1014.5
20150530020234 64 308 0.0 5.0 0.00 0.00 0.00 61 1014.7
20150530015234 64 308 2.0 6.0 0.00 0.00 0.00 60 1014.8
20150530014235 64 313 1.0 7.0 0.00 0.00 0.00 60 1014.8
20150530013233 63 302 6.0 9.0 0.00 0.00 0.00 62 1014.8
20150530012235 62 292 3.0 6.0 0.00 0.00 0.00 59 1014.8
20150530011234 62 213 0.0 2.0 0.00 0.00 0.00 56 1014.8
20150530003234 61 213 0.0 0.0 0.00 0.00 0.00 69 1015.2
20150529235233 61 213 1.0 3.0 0.00 0.00 0.00 67 1015.3
20150529234234 61 213 1.0 3.0 0.00 0.00 0.00 67 1015.4
20150529233234 61 213 0.0 1.0 0.00 0.00 0.00 66 1015.4
20150529232233 62 213 0.0 1.0 0.00 0.00 0.00 65 1015.4
20150529231234 61 213 0.0 2.0 0.00 0.00 0.00 68 1015.5
20150529225233 61 213 1.0 3.0 0.00 0.00 0.00 73 1015.6
20150529224233 62 213 0.0 2.0 0.00 0.00 0.00 73 1015.6
20150529222234 62 213 0.0 1.0 0.00 0.00 0.00 73 1015.7
20150529221234 62 213 0.0 3.0 0.00 0.00 0.00 75 1015.7
20150529215234 63 213 3.0 3.0 0.00 0.00 0.00 82 1015.6
20150529214234 64 213 0.0 1.0 0.00 0.00 0.00 83 1015.6
20150529213234 64 213 0.0 2.0 0.00 0.00 0.00 85 1015.6
20150529212234 65 213 0.0 1.0 0.00 0.00 0.00 85 1015.7
20150529210233 65 213 1.0 3.0 0.00 0.00 0.00 86 1015.9
20150529205233 65 213 3.0 5.0 0.00 0.00 0.00 86 1015.8
20150529202234 66 192 1.0 3.0 0.00 0.00 0.00 84 1015.4
20150529201233 66 192 1.0 3.0 0.00 0.00 0.00 84 1015.1
20150529200234 66 192 0.0 6.0 0.00 0.00 0.00 84 1014.9
20150529194233 67 203 0.0 3.0 0.00 0.00 0.00 83 1014.8
20150529193234 67 204 1.0 3.0 0.00 0.00 0.00 82 1014.5
20150529191233 67 210 0.0 3.0 0.00 0.00 0.00 81 1014.5
20150529190234 67 210 2.0 5.0 0.00 0.00 0.00 81 1014.3
20150529185233 67 210 1.0 6.0 0.00 0.00 0.00 80 1014.3
20150529183233 68 206 4.0 7.0 0.00 0.00 0.00 79 1014.0